Location: Kermapucano
(48.0667°N, 3.3000°W)
Time: 20:02:07
(UTC+00:00)

USA 308 - Pass Details

Date: 29 November 2020
Orbit: 561 x 585 km, 54.0° (Epoch: 25 January)

Event Time Altitude Azimuth Distance (km) Brightness Sun altitude
Exits shadow 05:12:36 37° 8° (N) 927 3.9 -23.9°
Drops below altitude 10° 05:16:25 10° 68° (ENE) 1,913 6.4 -23.3°
Sets 05:18:49 0° 77° (ENE) 2,813 7.6 -22.9°
